When you browse on this site, cookies collect data to enhance your experience and personalize the content and advertising you see.
Visit our Privacy Policy to learn more. By continuing to use the site, you agree to this use of cookies and data.
  • In Czech Republic
  • List of Countries
  • For 7 days
  • Water Temperature
  • Weather Map
  • Weather Widgets
  • user-avatar
    Login

    Hourly Weather Spartak

    Today, 30 May, Saturday

    Time Temperature Precipitation Wind Pressure Humidity
    00:00 +11°C° 0.1 mm 6 mps 743 mmHg 87%
    01:00 +11°C° 0.1 mm 6 mps 743 mmHg 88%
    02:00 +12°C° 0.1 mm 5 mps 743 mmHg 89%
    03:00 +11°C° 0.8 mm 6 mps 742 mmHg 91%
    04:00 +11°C° 0.8 mm 6 mps 742 mmHg 94%
    05:00 +11°C° 0.8 mm 6 mps 741 mmHg 96%
    06:00 +11°C° 2.4 mm 6 mps 741 mmHg 96%
    07:00 +13°C° 2.4 mm 6 mps 741 mmHg 96%
    08:00 +13°C° 2.4 mm 6 mps 741 mmHg 96%
    09:00 +12°C° 2 mm 7 mps 740 mmHg 96%
    10:00 +12°C° 2 mm 7 mps 740 mmHg 96%
    11:00 +12°C° 2 mm 7 mps 740 mmHg 96%
    12:00 +14°C° 0.5 mm 7 mps 739 mmHg 94%
    13:00 +13°C° 0.5 mm 8 mps 739 mmHg 93%
    14:00 +15°C° 0.5 mm 8 mps 738 mmHg 91%
    15:00 +15°C° 0.8 mm 8 mps 737 mmHg 92%
    16:00 +13°C° 0.8 mm 8 mps 737 mmHg 92%
    17:00 +13°C° 0.8 mm 8 mps 736 mmHg 93%
    18:00 +13°C° 3.3 mm 9 mps 736 mmHg 93%
    19:00 +13°C° 3.3 mm 9 mps 735 mmHg 94%
    20:00 +13°C° 3.3 mm 10 mps 735 mmHg 95%
    21:00 +13°C° 1.2 mm 8 mps 736 mmHg 95%
    22:00 +14°C° 1.2 mm 7 mps 736 mmHg 96%
    23:00 +14°C° 1.2 mm 5 mps 736 mmHg 96%

    Tomorrow, 31 May, Sunday

    Time Temperature Precipitation Wind Pressure Humidity
    00:00 +14°C° 0.1 mm 5 mps 737 mmHg 96%
    01:00 +14°C° 0.1 mm 4 mps 737 mmHg 96%
    02:00 +13°C° 0.1 mm 4 mps 738 mmHg 96%
    03:00 +13°C° 0 mm 3 mps 738 mmHg 97%
    04:00 +13°C° 0 mm 3 mps 738 mmHg 97%
    05:00 +13°C° 0 mm 3 mps 739 mmHg 97%
    06:00 +13°C° 0.1 mm 3 mps 739 mmHg 96%
    07:00 +13°C° 0.1 mm 3 mps 740 mmHg 95%
    08:00 +14°C° 0.1 mm 4 mps 740 mmHg 95%
    09:00 +14°C° 0.5 mm 4 mps 741 mmHg 94%
    10:00 +13°C° 0.5 mm 5 mps 741 mmHg 93%
    11:00 +13°C° 0.5 mm 6 mps 741 mmHg 92%
    12:00 +12°C° 0.2 mm 7 mps 742 mmHg 91%
    13:00 +12°C° 0.2 mm 7 mps 742 mmHg 89%
    14:00 +12°C° 0.2 mm 8 mps 742 mmHg 88%
    15:00 +11°C° 0.3 mm 8 mps 743 mmHg 88%
    16:00 +10°C° 0.3 mm 7 mps 743 mmHg 88%
    17:00 +10°C° 0.3 mm 7 mps 743 mmHg 89%
    18:00 +10°C° 0.2 mm 6 mps 744 mmHg 88%
    19:00 +10°C° 0.2 mm 6 mps 744 mmHg 88%
    20:00 +10°C° 0.2 mm 5 mps 745 mmHg 88%
    21:00 +9°C° 0 mm 5 mps 745 mmHg 88%
    22:00 +9°C° 0 mm 5 mps 745 mmHg 88%
    23:00 +8°C° 0 mm 5 mps 746 mmHg 89%

    Day after tomorrow, 1 June, Monday

    Time Temperature Precipitation Wind Pressure Humidity
    00:00 +7°C° 0 mm 5 mps 746 mmHg 88%
    01:00 +7°C° 0 mm 5 mps 746 mmHg 88%
    02:00 +6°C° 0 mm 5 mps 746 mmHg 87%
    03:00 +6°C° 0 mm 5 mps 747 mmHg 86%
    04:00 +5°C° 0 mm 5 mps 747 mmHg 85%
    05:00 +5°C° 0 mm 5 mps 747 mmHg 84%
    06:00 +6°C° 0 mm 5 mps 747 mmHg 78%
    07:00 +7°C° 0 mm 6 mps 747 mmHg 71%
    08:00 +9°C° 0 mm 6 mps 747 mmHg 65%
    09:00 +9°C° 0 mm 6 mps 747 mmHg 64%
    10:00 +10°C° 0 mm 6 mps 748 mmHg 63%
    11:00 +10°C° 0 mm 6 mps 748 mmHg 61%
    12:00 +10°C° 0.1 mm 6 mps 748 mmHg 62%
    13:00 +10°C° 0.1 mm 6 mps 748 mmHg 63%
    14:00 +10°C° 0.1 mm 6 mps 748 mmHg 63%
    15:00 +10°C° 0.1 mm 6 mps 748 mmHg 65%
    16:00 +10°C° 0.1 mm 5 mps 748 mmHg 66%
    17:00 +10°C° 0.1 mm 5 mps 748 mmHg 68%
    18:00 +9°C° 0.1 mm 5 mps 748 mmHg 73%
    19:00 +8°C° 0.1 mm 4 mps 748 mmHg 78%
    20:00 +7°C° 0.1 mm 4 mps 748 mmHg 84%
    21:00 +6°C° 0 mm 4 mps 748 mmHg 86%
    22:00 +7°C° 0 mm 3 mps 748 mmHg 89%
    23:00 +5°C° 0 mm 3 mps 748 mmHg 92%

    2 June, Tuesday

    Time Temperature Precipitation Wind Pressure Humidity
    00:00 +5°C° 0 mm 3 mps 747 mmHg 92%
    01:00 +5°C° 0 mm 3 mps 747 mmHg 92%
    02:00 +7°C° 0 mm 3 mps 747 mmHg 92%
    03:00 +6°C° 0.1 mm 4 mps 747 mmHg 92%
    04:00 +6°C° 0.1 mm 4 mps 746 mmHg 92%
    05:00 +6°C° 0.1 mm 4 mps 746 mmHg 92%
    06:00 +7°C° 0 mm 4 mps 746 mmHg 89%
    07:00 +8°C° 0 mm 5 mps 746 mmHg 86%
    08:00 +8°C° 0 mm 5 mps 746 mmHg 83%
    09:00 +9°C° 0.2 mm 5 mps 746 mmHg 80%
    10:00 +10°C° 0.2 mm 5 mps 746 mmHg 78%
    11:00 +12°C° 0.2 mm 5 mps 746 mmHg 76%
    12:00 +11°C° 0.4 mm 6 mps 745 mmHg 75%
    13:00 +13°C° 0.4 mm 6 mps 745 mmHg 74%
    14:00 +14°C° 0.4 mm 7 mps 744 mmHg 73%
    15:00 +12°C° 0.5 mm 7 mps 744 mmHg 77%
    16:00 +11°C° 0.5 mm 6 mps 744 mmHg 81%
    17:00 +11°C° 0.5 mm 6 mps 743 mmHg 85%
    18:00 +10°C° 0.4 mm 6 mps 743 mmHg 87%
    19:00 +9°C° 0.4 mm 5 mps 743 mmHg 90%
    20:00 +9°C° 0.4 mm 5 mps 742 mmHg 92%
    21:00 +9°C° 0.4 mm 5 mps 742 mmHg 92%
    22:00 +9°C° 0.4 mm 6 mps 742 mmHg 92%
    23:00 +9°C° 0.4 mm 6 mps 741 mmHg 91%

    3 June, Wednesday

    Time Temperature Precipitation Wind Pressure Humidity
    00:00 +9°C° 0.2 mm 6 mps 741 mmHg 93%
    01:00 +9°C° 0.2 mm 6 mps 741 mmHg 94%
    02:00 +9°C° 0.2 mm 6 mps 740 mmHg 95%
    03:00 +9°C° 0.4 mm 6 mps 740 mmHg 96%
    04:00 +9°C° 0.4 mm 6 mps 739 mmHg 96%
    05:00 +9°C° 0.4 mm 6 mps 739 mmHg 96%
    06:00 +9°C° 0.9 mm 5 mps 739 mmHg 97%
    07:00 +10°C° 0.9 mm 5 mps 739 mmHg 97%
    08:00 +10°C° 0.9 mm 5 mps 739 mmHg 97%
    09:00 +12°C° 0.9 mm 5 mps 739 mmHg 94%
    10:00 +13°C° 0.9 mm 5 mps 739 mmHg 92%
    11:00 +14°C° 0.9 mm 5 mps 739 mmHg 90%
    12:00 +14°C° 0.4 mm 5 mps 739 mmHg 85%
    13:00 +15°C° 0.4 mm 5 mps 739 mmHg 79%
    14:00 +16°C° 0.4 mm 5 mps 740 mmHg 74%
    15:00 +17°C° 0.1 mm 4 mps 740 mmHg 71%
    16:00 +17°C° 0.1 mm 4 mps 740 mmHg 69%
    17:00 +17°C° 0.1 mm 4 mps 740 mmHg 67%
    18:00 +16°C° 0 mm 3 mps 740 mmHg 73%
    19:00 +13°C° 0 mm 3 mps 740 mmHg 79%
    20:00 +13°C° 0 mm 2 mps 740 mmHg 85%
    21:00 +12°C° 0 mm 2 mps 740 mmHg 87%
    22:00 +10°C° 0 mm 2 mps 741 mmHg 89%
    23:00 +10°C° 0 mm 2 mps 741 mmHg 91%

    4 June, Thursday

    Time Temperature Precipitation Wind Pressure Humidity
    00:00 +9°C° 0 mm 2 mps 741 mmHg 92%
    01:00 +9°C° 0 mm 2 mps 741 mmHg 92%
    02:00 +9°C° 0 mm 2 mps 741 mmHg 92%
    03:00 +9°C° 0 mm 2 mps 741 mmHg 93%
    04:00 +9°C° 0 mm 2 mps 741 mmHg 93%
    05:00 +9°C° 0 mm 2 mps 741 mmHg 93%
    06:00 +10°C° 0.1 mm 2 mps 741 mmHg 90%
    07:00 +11°C° 0.1 mm 3 mps 741 mmHg 86%
    08:00 +12°C° 0.1 mm 3 mps 741 mmHg 83%
    09:00 +13°C° 0.6 mm 4 mps 740 mmHg 81%
    10:00 +14°C° 0.6 mm 4 mps 740 mmHg 78%
    11:00 +15°C° 0.6 mm 4 mps 740 mmHg 75%
    12:00 +15°C° 0.8 mm 4 mps 740 mmHg 75%
    13:00 +17°C° 0.8 mm 4 mps 740 mmHg 75%
    14:00 +17°C° 0.8 mm 3 mps 740 mmHg 75%
    15:00 +17°C° 0.8 mm 3 mps 739 mmHg 77%
    16:00 +16°C° 0.8 mm 3 mps 739 mmHg 79%
    17:00 +16°C° 0.8 mm 3 mps 739 mmHg 80%
    18:00 +14°C° 0.3 mm 3 mps 739 mmHg 84%
    19:00 +14°C° 0.3 mm 2 mps 739 mmHg 88%
    20:00 +13°C° 0.3 mm 1 mps 739 mmHg 92%
    21:00 +12°C° 0 mm 1 mps 739 mmHg 92%
    22:00 +11°C° 0 mm 1 mps 739 mmHg 93%
    23:00 +11°C° 0 mm 1 mps 739 mmHg 94%
    Show more